Location: Sternwarte ZA, Rosenfeld-Brittheim
(48.2889°N, 8.6789°E)
Time: 04:46:30
(UTC+02:00)

ISS - Pass Details

Date: 22 September 2018
Orbit: 403 x 408 km, 51.6° (Epoch: 25 September)

Event Time Altitude Azimuth Distance (km) Brightness Sun altitude
Rises 21:59:18 0° 243° (WSW) 2,327 0.4 -25.4°
Reaches altitude 10° 22:01:23 10° 242° (WSW) 1,468 -0.7 -25.7°
Enters shadow 22:01:33 11° 242° (WSW) 1,401 -0.8 -25.8°
